Location: Bronnegerveen
(52.9548°N, 6.8388°E)
Time: 01:37:34
(UTC+00:00)

USA 59 Rocket - Pass Details

Date: 15 June 2025
Orbit: 373 x 1694 km, 63.3° (Epoch: 06 July)

Event Time Altitude Azimuth Distance (km) Brightness Sun altitude
Rises 00:47:54 0° 299° (WNW) 2,496 3.3 -12.0°
Reaches altitude 10° 00:50:27 10° 276° (W) 1,766 2.3 -11.9°
Maximum altitude 00:52:52 16° 237° (WSW) 1,576 1.7 -11.8°
Enters shadow 00:53:50 15° 221° (SW) 1,690 1.7 -11.7°
